| time (UTC) | temp F | wind direction | speed knots | gust knots | rain 1hr in | rain 24hr in | rain mn in | humidity % | barometer mb |
| 20260901203006 | 93 | 315 | 0.9 | 4.3 | 0.00 | 0.01 | 0.01 | 64 | 1015.4 |
| 20260901201504 | 92 | 315 | 0.9 | 5.2 | 0.00 | 0.01 | 0.01 | 61 | 1015.5 |
| 20260901200002 | 93 | 315 | 1.7 | 7.0 | 0.00 | 0.01 | 0.01 | 63 | 1015.5 |
| 20260901194501 | 92 | 318 | 4.3 | 7.8 | 0.00 | 0.01 | 0.01 | 64 | 1015.6 |
| 20260901193056 | 92 | 309 | 3.5 | 7.0 | 0.00 | 0.01 | 0.01 | 65 | 1015.7 |
| 20260901191553 | 93 | 311 | 4.3 | 7.0 | 0.00 | 0.01 | 0.01 | 60 | 1015.9 |
| 20260901190051 | 94 | 287 | 2.6 | 5.2 | 0.00 | 0.01 | 0.01 | 60 | 1015.9 |
| 20260901184554 | 94 | 35 | 4.3 | 7.8 | 0.00 | 0.01 | 0.01 | 54 | 1016.0 |
| 20260901183024 | 94 | 148 | 1.7 | 5.2 | 0.00 | 0.01 | 0.01 | 55 | 1016.1 |
| 20260901181515 | 93 | 144 | 1.7 | 7.8 | 0.00 | 0.01 | 0.01 | 56 | 1016.3 |
| 20260901180015 | 93 | 105 | 2.6 | 4.3 | 0.00 | 0.01 | 0.01 | 58 | 1016.5 |
| 20260901174508 | 92 | 157 | 1.7 | 5.2 | 0.00 | 0.01 | 0.01 | 62 | 1016.7 |
| 20260901173006 | 92 | 66 | 3.5 | 7.0 | 0.00 | 0.01 | 0.01 | 62 | 1016.8 |
| 20260901171506 | 91 | 97 | 2.6 | 7.8 | 0.00 | 0.01 | 0.01 | 63 | 1017.0 |
| 20260901170104 | 91 | 65 | 2.6 | 7.8 | 0.00 | 0.01 | 0.01 | 64 | 1017.1 |
| 20260901170000 | 91 | 65 | 4.3 | 7.8 | 0.00 | 0.01 | 0.01 | 65 | 1017.1 |
| 20260901164558 | 91 | 88 | 3.5 | 7.8 | 0.00 | 0.01 | 0.01 | 66 | 1017.1 |
| 20260901163113 | 90 | 57 | 3.5 | 7.0 | 0.00 | 0.01 | 0.01 | 70 | 1017.0 |
| 20260901161603 | 89 | 57 | 4.3 | 7.0 | 0.00 | 0.01 | 0.01 | 70 | 1016.9 |
| 20260901160053 | 89 | 38 | 5.2 | 8.7 | 0.00 | 0.01 | 0.01 | 70 | 1017.1 |
| 20260901154548 | 88 | 32 | 3.5 | 9.6 | 0.00 | 0.01 | 0.01 | 72 | 1017.1 |
| 20260901153043 | 87 | 41 | 3.5 | 7.0 | 0.00 | 0.01 | 0.01 | 74 | 1017.2 |
| 20260901151550 | 86 | 18 | 4.3 | 7.0 | 0.00 | 0.01 | 0.01 | 75 | 1017.3 |
| 20260901150037 | 85 | 94 | 0.0 | 4.3 | 0.00 | 0.01 | 0.01 | 78 | 1017.2 |
| 20260901144532 | 83 | 114 | 0.9 | 4.3 | 0.00 | 0.01 | 0.01 | 82 | 1017.3 |
| 20260901143026 | 81 | 116 | 0.9 | 3.5 | 0.00 | 0.01 | 0.01 | 84 | 1017.4 |
| 20260901141532 | 80 | 55 | 0.0 | 6.1 | 0.00 | 0.01 | 0.01 | 87 | 1017.4 |
| 20260901140017 | 78 | 92 | 0.0 | 0.0 | 0.00 | 0.01 | 0.01 | 93 | 1017.4 |
| 20260901134512 | 77 | 177 | 0.0 | 0.0 | 0.00 | 0.01 | 0.01 | 96 | 1017.5 |
| 20260901133010 | 76 | 211 | 0.0 | 0.0 | 0.00 | 0.01 | 0.01 | 98 | 1017.6 |
| 20260901131506 | 74 | 211 | 0.0 | 0.0 | 0.00 | 0.01 | 0.01 | 99 | 1017.6 |
| 20260901130000 | 74 | 211 | 0.0 | 0.0 | 0.00 | 0.01 | 0.01 | 99 | 1017.7 |
| 20260901124600 | 73 | 211 | 0.0 | 0.0 | 0.00 | 0.01 | 0.01 | 99 | 1017.7 |
| 20260901123059 | 72 | 211 | 0.0 | 0.0 | 0.00 | 0.01 | 0.01 | 99 | 1017.7 |
| 20260901121603 | 71 | 211 | 0.0 | 0.0 | 0.00 | 0.01 | 0.01 | 99 | 1017.8 |
| 20260901120026 | 70 | 211 | 0.0 | 0.0 | 0.00 | 0.01 | 0.01 | 99 | 1017.7 |
| 20260901114526 | 70 | 211 | 0.0 | 0.0 | 0.00 | 0.01 | 0.01 | 99 | 1017.4 |
| 20260901113023 | 70 | 211 | 0.0 | 0.0 | 0.00 | 0.01 | 0.01 | 99 | 1017.2 |
| 20260901111520 | 70 | 211 | 0.0 | 0.0 | 0.00 | 0.01 | 0.01 | 99 | 1017.1 |
| 20260901110019 | 70 | 211 | 0.0 | 0.0 | 0.00 | 0.01 | 0.01 | 99 | 1016.9 |
| 20260901104521 | 70 | 211 | 0.0 | 0.0 | 0.00 | 0.01 | 0.01 | 99 | 1016.8 |
| 20260901103014 | 70 | 211 | 0.0 | 0.0 | 0.00 | 0.01 | 0.01 | 99 | 1016.7 |
| 20260901101514 | 70 | 211 | 0.0 | 0.0 | 0.00 | 0.01 | 0.01 | 99 | 1016.6 |
| 20260901100014 | 70 | 211 | 0.0 | 0.0 | 0.00 | 0.01 | 0.01 | 98 | 1016.6 |
| 20260901094512 | 71 | 211 | 0.0 | 0.0 | 0.00 | 0.01 | 0.01 | 98 | 1016.5 |
| 20260901093007 | 71 | 211 | 0.0 | 0.0 | 0.00 | 0.01 | 0.01 | 99 | 1016.3 |
| 20260901091507 | 71 | 211 | 0.0 | 0.0 | 0.01 | 0.01 | 0.01 | 99 | 1016.2 |
| 20260901090007 | 71 | 211 | 0.0 | 0.0 | 0.01 | 0.01 | 0.01 | 99 | 1016.2 |
| 20260901084504 | 71 | 211 | 0.0 | 0.0 | 0.01 | 0.01 | 0.01 | 98 | 1016.1 |
| 20260901083004 | 71 | 211 | 0.0 | 0.0 | 0.01 | 0.01 | 0.01 | 98 | 1016.1 |
| 20260901081500 | 71 | 211 | 0.0 | 0.0 | 0.00 | 0.00 | 0.00 | 99 | 1016.0 |
| 20260901080113 | 71 | 211 | 0.0 | 0.0 | 0.00 | 0.00 | 0.00 | 98 | 1016.0 |
| 20260901074623 | 72 | 211 | 0.0 | 0.0 | 0.00 | 0.00 | 0.00 | 98 | 1016.1 |
| 20260901073059 | 72 | 211 | 0.0 | 0.0 | 0.00 | 0.00 | 0.00 | 98 | 1016.0 |
| 20260901071526 | 72 | 211 | 0.0 | 0.0 | 0.00 | 0.00 | 0.00 | 98 | 1015.8 |
| 20260901070026 | 72 | 209 | 0.0 | 0.0 | 0.00 | 0.00 | 0.00 | 98 | 1015.9 |
| 20260901064523 | 72 | 209 | 0.0 | 0.0 | 0.00 | 0.00 | 0.00 | 98 | 1015.7 |
| 20260901063024 | 73 | 209 | 0.0 | 0.0 | 0.00 | 0.00 | 0.00 | 98 | 1015.7 |
| 20260901061521 | 73 | 209 | 0.0 | 0.0 | 0.00 | 0.00 | 0.00 | 98 | 1015.7 |
| 20260901060035 | 73 | 209 | 0.0 | 0.0 | 0.00 | 0.00 | 0.00 | 98 | 1015.8 |
| 20260901054549 | 73 | 209 | 0.0 | 0.0 | 0.00 | 0.00 | 0.00 | 98 | 1016.0 |
| 20260901053057 | 74 | 209 | 0.0 | 0.0 | 0.00 | 0.00 | 0.00 | 98 | 1016.1 |
| 20260901051508 | 74 | 209 | 0.0 | 0.0 | 0.00 | 0.00 | 0.00 | 97 | 1016.3 |
| 20260901050005 | 74 | 209 | 0.0 | 0.0 | 0.00 | 0.00 | 0.00 | 97 | 1016.2 |
| 20260901044502 | 74 | 209 | 0.0 | 0.0 | 0.00 | 0.00 | 0.00 | 97 | 1016.3 |
| 20260901043001 | 74 | 209 | 0.0 | 0.0 | 0.00 | 0.00 | 0.00 | 97 | 1016.3 |
| 20260901041501 | 75 | 209 | 0.0 | 0.0 | 0.00 | 0.00 | 0.00 | 97 | 1016.4 |
| 20260901040136 | 75 | 209 | 0.0 | 0.0 | 0.00 | 0.00 | 0.00 | 97 | 1016.5 |
| 20260901034558 | 75 | 208 | 0.0 | 0.0 | 0.00 | 0.00 | 0.00 | 97 | 1016.6 |
| 20260901033057 | 76 | 208 | 0.0 | 0.0 | 0.00 | 0.00 | 0.00 | 96 | 1016.5 |
| 20260901031559 | 76 | 208 | 0.0 | 0.0 | 0.00 | 0.00 | 0.00 | 96 | 1016.6 |
| 20260901024555 | 76 | 208 | 0.0 | 0.0 | 0.00 | 0.00 | 0.00 | 96 | 1016.6 |
| 20260901023100 | 77 | 208 | 0.0 | 0.0 | 0.00 | 0.00 | 0.00 | 96 | 1016.7 |
| 20260901021552 | 77 | 208 | 0.0 | 0.0 | 0.00 | 0.00 | 0.00 | 95 | 1016.6 |
| 20260901020055 | 77 | 208 | 0.0 | 0.0 | 0.00 | 0.00 | 0.00 | 95 | 1016.5 |
| 20260901014548 | 77 | 207 | 0.0 | 0.0 | 0.00 | 0.00 | 0.00 | 95 | 1016.4 |
| 20260901013055 | 78 | 207 | 0.0 | 0.0 | 0.00 | 0.00 | 0.00 | 95 | 1016.2 |
| 20260901011548 | 78 | 207 | 0.0 | 0.0 | 0.00 | 0.00 | 0.00 | 94 | 1016.0 |
| 20260901004516 | 79 | 207 | 0.0 | 0.9 | 0.00 | 0.00 | 0.00 | 93 | 1015.7 |
| 20260901003021 | 79 | 207 | 0.0 | 0.0 | 0.00 | 0.00 | 0.00 | 92 | 1015.5 |
| 20260901001525 | 80 | 207 | 0.0 | 1.7 | 0.00 | 0.00 | 0.00 | 91 | 1015.3 |
| 20260901000013 | 80 | 206 | 0.0 | 3.5 | 0.00 | 0.00 | 0.00 | 90 | 1015.2 |
| 20260831234512 | 81 | 207 | 2.6 | 4.3 | 0.00 | 0.00 | 0.00 | 89 | 1015.3 |
| 20260831233029 | 83 | 190 | 0.0 | 0.0 | 0.00 | 0.00 | 0.00 | 86 | 1015.3 |
| 20260831231517 | 84 | 183 | 0.0 | 0.0 | 0.00 | 0.00 | 0.00 | 84 | 1015.4 |
| 20260831230010 | 85 | 175 | 0.0 | 1.7 | 0.00 | 0.00 | 0.00 | 81 | 1015.5 |
| 20260831224508 | 86 | 167 | 1.7 | 4.3 | 0.00 | 0.00 | 0.00 | 79 | 1015.5 |
| 20260831223007 | 88 | 85 | 0.0 | 0.9 | 0.00 | 0.00 | 0.00 | 73 | 1015.6 |
| 20260831221505 | 89 | 40 | 0.0 | 5.2 | 0.00 | 0.00 | 0.00 | 70 | 1015.6 |
| 20260831220004 | 90 | 43 | 2.6 | 6.1 | 0.00 | 0.00 | 0.00 | 65 | 1015.7 |
| 20260831214500 | 91 | 43 | 3.5 | 5.2 | 0.00 | 0.00 | 0.00 | 65 | 1015.8 |
| 20260831213106 | 92 | 28 | 1.7 | 6.1 | 0.00 | 0.00 | 0.00 | 61 | 1016.1 |
| 20260831211528 | 92 | 82 | 1.7 | 6.1 | 0.00 | 0.00 | 0.00 | 59 | 1016.2 |
| 20260831210026 | 91 | 76 | 0.9 | 4.3 | 0.00 | 0.00 | 0.00 | 63 | 1016.1 |
| 20260831204523 | 92 | 32 | 2.6 | 7.0 | 0.00 | 0.00 | 0.00 | 62 | 1016.1 |